User: anonymous   Login
Location: Lawrence Hall of Science
(37.8785°N, 122.2415°W)
Time: 12:10:53
(UTC-07:00)
Language:

Cosmos 1461 - Orbit

View from above orbital plane
View from above orbital plane
View from above satellite
View from above satellite

Ground track
Ground track

The orbit data is extracted from the following two-line orbital elements,

1 14064U 83044A   15215.51132180  .00001913  00000-0  17992-3 0  9994
2 14064 065.0000 237.8345 0120724 309.5146 049.5343 14.91716024621297
Epoch (UTC): 03 August 2015 12:16:18
Eccentricity: 0.0120724
inclination: 65.0000°
perigee height: 508 km
apogee height: 677 km
right ascension of ascending node: 237.8345°
argument of perigee: 309.5146°
revolutions per day: 14.91716024
mean anomaly at epoch: 49.5343°
orbit number at epoch: 62129

The dashed part of the orbit path shows where the satellite is in the earth's shadow,  

DLR